This is the latest recevied weather packets stored in our database for station/object WX5RP. If no packets are shown the sender has not sent any weather packets the latest 10 day(s).
| Time | Temp. | Humidity | Pressure | Rain* | Wind** | Luminosity | Snow |
|---|---|---|---|---|---|---|---|
| 1777887916 | 6.67° C | 65% | 1013.3 hPa | 0 mm | - | 0 W/m² | - |
| 1777887315 | 8.89° C | 59% | 1012.9 hPa | 0 mm | - | 0 W/m² | - |
| 1777886715 | 8.33° C | 63% | 1012.8 hPa | 0 mm | - | 0 W/m² | - |
| 1777886115 | 7.22° C | 66% | 1012.2 hPa | 0 mm | - | 0 W/m² | - |
| 1777885515 | 8.89° C | 59% | 1013 hPa | 0 mm | - | 0 W/m² | - |
| 1777884915 | 8.89° C | 62% | 1013.3 hPa | 0 mm | - | 0 W/m² | - |
| 1777884315 | 9.44° C | 60% | 1013.3 hPa | 0 mm | - | 0 W/m² | - |
| 1777883715 | 8.89° C | 63% | 1013.6 hPa | 0 mm | - | 0 W/m² | - |
| 1777883117 | 10° C | 58% | 1013.6 hPa | 0 mm | - | 0 W/m² | - |
| 1777882517 | 10.56° C | 57% | 1013.3 hPa | 0 mm | - | 0 W/m² | - |
| 1777881917 | 11.11° C | 56% | 1013.1 hPa | 0 mm | - | 0 W/m² | - |
| 1777881317 | 11.67° C | 56% | 1013.1 hPa | 0 mm | - | 0 W/m² | - |
| 1777880717 | 11.67° C | 55% | 1012.8 hPa | 0 mm | - | 0 W/m² | - |
| 1777880117 | 11.11° C | 57% | 1013.6 hPa | 0 mm | - | 0 W/m² | - |
| 1777879517 | 11.11° C | 58% | 1012.8 hPa | 0 mm | - | 0 W/m² | - |
| 1777878917 | 12.22° C | 52% | 1013.3 hPa | 0 mm | - | 0 W/m² | - |
| 1777878317 | 12.78° C | 49% | 1012.8 hPa | 0 mm | - | 0 W/m² | - |
| 1777877717 | 13.33° C | 47% | 1012.9 hPa | 0 mm | - | 0 W/m² | - |
| 1777877117 | 12.78° C | 48% | 1012.9 hPa | 0 mm | - | 0 W/m² | - |
| 1777876516 | 11.67° C | 55% | 1012 hPa | 0 mm | - | 0 W/m² | - |
| 1777875917 | 13.33° C | 50% | 1012.6 hPa | 0 mm | - | 0 W/m² | - |
| 1777875316 | 13.33° C | 47% | 1012.3 hPa | 0 mm | - | 0 W/m² | - |
| 1777874716 | 13.33° C | 48% | 1012.8 hPa | 0 mm | - | 0 W/m² | - |
| 1777874116 | 12.78° C | 48% | 1012.5 hPa | 0 mm | - | 0 W/m² | - |
| 1777873516 | 13.33° C | 47% | 1012.8 hPa | 0 mm | - | 0 W/m² | - |
* Rain latest hour (hover to see other rain measurements)
** Current wind speed in m/s (hover to see current wind gust speed)